Regional Weather Roundup
Issued by NWS Sterling, VA

Home | Current Version | Previous Version | Text Only | Print | Product List | Glossary Off
Versions: 1 2 3 4 5 6 7 8 9 10 11 12 13 14 15 16 17 18 19 20 21 22 23 24 25 26 27

000
ASUS41 KLWX 271611
RWRLWX

REGIONAL WEATHER ROUNDUP
NATIONAL WEATHER SERVICE BALTIMORE MD/WASHINGTON DC
1200 PM EDT TUE JUN 27 2017

Note: "FAIR" indicates few or no clouds below 12,000 feet
with no significant weather and/or obstructions to visibility.
 TC=TEMPERATURE CELSIUS

 * =Non NWS site. Station does not report precipitation (e.g. rain,
    snow, etc.), thunder, or fog.

DCZ001-MDZ009-015-VAZ040>042-051-053>054-271700-
WASHINGTON METRO

CITY           SKY/WX    TMP DP  RH WIND       PRES   REMARKS
WASHINGTON NAT MOSUNNY   79  51  37 W9G20     30.03F
DULLES         PTSUNNY   76  50  40 W9        30.03F
FT BELVOIR     SUNNY     80  48  33 W9        30.03S
QUANTICO       PTSUNNY   78  55  44 SE5       30.04S
LEESBURG*      MOSUNNY   77  55  47 N6G18     30.04F
MANASSAS*      SUNNY     78  52  40 W8        30.04S
GAITHERSBURG*  MOSUNNY   75  54  47 NW15      30.04F

$$

MDZ006>007-011-014-271700-
BALTIMORE METRO

CITY           SKY/WX    TMP DP  RH WIND       PRES   REMARKS
BWI AIRPORT    PTSUNNY   77  50  38 W8G17     30.01S
MD SCIENCE CTR   N/A     78  49  35 MISG      30.02S
MARTIN STATE   MOSUNNY   79  54  41 W13       30.02S
ANNAPOLIS      SUNNY     75  54  47 NW8       30.01F
FORT MEADE*    MOSUNNY   77  54  44 NW8       30.04F

$$

MDZ012-015-019>023-271700-
MARYLAND EASTERN SHORE

CITY           SKY/WX    TMP DP  RH WIND       PRES   REMARKS
OCEAN CITY     PTSUNNY   74  59  59 SE6       30.02F
SALISBURY      CLOUDY    80  53  39 NW7       30.02R
BAY BRIDGE AP* MOSUNNY   77  54  44 W8        30.02F
CAMBRIDGE*     SUNNY     75  54  46 VRB7      30.03S
EASTON*        MOSUNNY   77  50  38 NW7       30.06R

$$

MDZ017>025-271700-
SOUTHERN MARYLAND

CITY           SKY/WX    TMP DP  RH WIND       PRES   REMARKS
PATUXENT RIVER MOSUNNY   77  52  41 N6        30.03S
ST INIGOES     SUNNY     78  54  43 MISG      30.02F
LEONARDTOWN*   SUNNY     77  52  41 W6        30.05

$$

MDZ003>005-271700-
NORTH CENTRAL MARYLAND

CITY           SKY/WX    TMP DP  RH WIND       PRES   REMARKS
FREDERICK*     MOSUNNY   75  48  38 NW7       30.05F
HAGERSTOWN APT PTSUNNY   73  52  47 W10       30.04S
WESTMINSTER*   PTSUNNY   75  52  43 NW10G17   30.03S

$$

MDZ501>502-271700-
WESTERN MARYLAND

CITY           SKY/WX    TMP DP  RH WIND       PRES   REMARKS
OAKLAND*       NOT AVBL
CUMBERLAND*    MOSUNNY   70  46  43 W9        30.09S

$$

VAZ025>031-271700-
SHENANDOAH VALLEY

CITY           SKY/WX    TMP DP  RH WIND       PRES   REMARKS
WINCHESTER*    MOSUNNY   73  46  38 W12G18    30.04S
FRONT ROYAL*   PTSUNNY   73  50  43 N6        30.03F
LURAY*         MOSUNNY   75  48  38 NW12      30.04F
NEW MARKET*    PTSUNNY   74  44  34 NW5       30.04S
STAUNTON*      PTSUNNY   71  47  42 NW7       30.08S
WAYNESBORO*    MOSUNNY   72  47  40 W8G20     30.07S

$$

WVZ021-048>050-054>055-271700-
EASTERN WEST VIRGINIA PANHANDLE

CITY           SKY/WX    TMP DP  RH WIND       PRES   REMARKS
MARTINSBURG    PTSUNNY   74  49  41 NW14      30.03S
PETERSBURG*    PTSUNNY   73  48  40 NW12      30.07S

$$

VAZ036>039-050-271700-
CENTRAL FOOTHILLS

CITY           SKY/WX    TMP DP  RH WIND       PRES   REMARKS
CHARLOTTESVILL MOSUNNY   77  50  38 VRB6      30.05S
CULPEPER*      MOSUNNY   78  52  40 W9        30.05R
ORANGE*        MOSUNNY   77  50  38 CALM      30.03F
GORDONSVILLE*  SUNNY     77  49  37 SW10      30.04S
WARRENTON*     MOSUNNY   79  45  29 SW5       30.04S

$$

VAZ055>057-271700-
NORTH AND CENTRAL PIEDMONT

CITY           SKY/WX    TMP DP  RH WIND       PRES   REMARKS
FREDERICKSBRG* SUNNY     79  52  38 S5        30.02F
STAFFORD*      SUNNY     79  49  35 NW7       30.07F

$$

NCZ024-NYZ072-PAZ021-071-VAZ022-071-271700-
OTHER REGIONAL OBSERVATIONS

CITY           SKY/WX    TMP DP  RH WIND       PRES   REMARKS
NEW YORK CITY  MOSUNNY   71  63  75 VRB5      30.02F
PHILADELPHIA   MOSUNNY   73  58  59 S7        30.00F
PITTSBURGH     PTSUNNY   64  46  52 W10G23    30.07S
ROANOKE        MOSUNNY   74  48  39 NW10G17   30.11S
RICHMOND       MOSUNNY   78  53  41 VRB3      30.04F
RALEIGH        MOSUNNY   79  56  45 NE12      30.07F

$$

ANZ530>537-271700-
MARINE OBSERVATIONS

STATION/POSITION TIME  TEMP    WIND        PRES
                       AIR SEA DIR/SP/G
                 (UTC) (F)     (DEG/KT/KT) (MB)
THOMAS PT LIGHT  1600   74 78  280/  7/  8   N/A
BALT KEY BRIDGE  1548   74     300/ 10/ 15 1015.9F
COVE POINT       1548   73      10/  4/  4 1017.6S
LEWISETTA        1548   75 79   30/  1/  4 1016.9F
SOLOMONS ISLAND  1548   78 78  250/  4/  5   N/A
PINEY POINT      1548          290/  5/  6   N/A

$$





USA.gov is the U.S. government's official web portal to all federal, state and local government web resources and services.